GFSSE_250_rhum_294.txt.gz
RH
95 100 100 95 76 62 51 54 46 40 38 33 24 23 24 22 20 21 23 32 51 62 61 55 45 46 54 57 52 46 42 37 31 28 26 24 28 34 35 32 30 30 29
98 100 100 98 77 57 56 49 43 46 45 35 25 27 31 26 20 20 21 28 46 53 55 50 30 37 39 40 38 31 29 29 27 30 31 29 33 32 31 30 27 27 23
100 100 100 98 73 60 71 58 39 50 43 29 31 31 42 29 22 20 20 22 30 38 42 35 25 25 23 23 24 24 24 24 24 32 33 36 37 37 33 34 30 36 29
100 100 100 100 84 65 84 74 54 46 47 35 27 36 48 36 23 22 20 20 20 23 23 23 22 22 21 22 22 22 24 29 36 35 31 42 45 35 36 37 38 50 35
100 100 100 100 100 82 83 72 66 56 47 36 33 28 44 38 29 30 26 22 21 22 20 21 21 22 25 26 30 34 37 37 37 38 44 49 44 38 57 67 69 58 40
100 100 100 100 100 99 87 79 68 60 53 51 39 30 33 34 30 30 31 29 24 23 22 22 24 26 28 30 33 34 40 46 48 53 53 47 49 56 71 92 92 59 42
100 98 100 100 100 100 97 90 65 55 51 57 47 40 32 31 30 30 31 32 33 29 25 23 25 29 32 32 35 40 51 49 57 61 64 62 67 84 100 100 86 57 45
100 97 100 100 100 100 100 100 73 52 60 62 49 44 40 33 32 32 32 34 36 35 32 27 26 28 33 35 38 42 46 55 61 60 62 64 75 100 100 100 70 53 48
100 92 100 100 100 100 100 100 95 84 78 83 64 55 48 42 39 34 32 32 35 37 38 35 29 30 33 38 46 55 59 61 62 61 57 56 66 100 100 78 59 53 54
93 100 91 95 98 100 100 100 100 100 100 98 84 69 59 54 51 39 35 34 34 34 36 42 43 44 45 45 51 50 54 64 66 65 59 63 94 100 82 59 59 54 57
91 91 100 100 100 96 100 100 100 78 69 100 99 87 100 97 77 56 43 36 35 37 38 40 43 46 48 48 50 52 52 53 61 67 67 73 100 79 57 58 60 54 85
100 100 97 100 100 100 91 100 100 100 88 68 100 100 100 100 91 89 75 54 46 41 38 41 43 45 47 48 50 53 56 58 65 77 78 93 100 82 64 62 64 73 82
100 100 100 100 100 100 100 99 100 100 100 100 99 93 100 99 100 100 93 82 57 56 57 55 47 46 50 53 52 53 57 60 86 80 89 100 100 80 71 68 70 97 66
65 94 100 98 83 100 100 100 100 100 100 81 88 99 92 89 93 99 100 100 91 71 70 68 64 61 63 64 66 61 60 72 89 85 99 100 100 91 90 71 83 92 81
96 56 74 100 100 95 100 100 100 100 100 100 100 81 80 87 77 82 65 79 98 99 86 76 74 70 69 70 68 74 75 93 100 100 100 100 100 83 66 76 74 97 91
100 100 76 81 92 100 100 100 100 100 100 97 86 97 82 79 66 73 51 88 100 100 100 92 86 78 71 71 73 83 91 94 100 100 100 100 100 98 88 81 78 99 80
77 100 100 88 88 94 100 100 100 100 100 100 81 90 98 82 90 79 60 50 95 100 100 100 99 95 89 83 80 79 98 100 100 100 100 100 100 100 93 84 86 94 74
37 45 82 100 100 100 100 100 100 100 100 100 100 100 100 100 100 100 85 60 70 100 100 100 100 100 100 100 96 94 97 100 95 97 100 100 100 100 97 82 90 100 74
38 33 33 74 100 100 100 100 100 100 100 95 100 99 100 100 100 100 100 100 86 98 98 97 96 100 100 100 100 80 89 93 100 100 100 100 100 100 93 92 100 100 80
35 39 32 33 99 100 100 100 100 96 100 100 100 100 100 100 100 97 96 99 100 100 100 100 100 100 100 100 100 100 86 79 82 100 100 100 99 100 90 94 100 98 100
31 32 37 36 39 100 100 100 100 100 100 100 100 100 100 100 100 100 91 87 97 100 100 100 100 100 100 100 100 90 82 82 85 95 100 98 98 99 94 89 90 100 100
28 30 26 29 31 40 100 100 100 100 100 100 100 100 100 100 100 100 93 80 81 100 100 100 99 99 99 100 99 99 100 96 97 82 83 91 100 100 93 90 100 100 94
21 22 27 26 24 27 49 100 100 100 100 100 100 100 100 100 100 100 100 100 85 100 100 100 93 100 100 100 100 100 100 97 88 86 90 95 100 99 96 100 100 87 92
20 18 18 21 22 22 24 46 100 100 100 100 100 100 100 100 100 100 100 100 99 93 100 100 100 99 97 100 100 100 100 100 99 98 96 91 92 100 100 100 100 100 100
20 19 17 17 17 19 20 21 46 98 100 100 100 100 100 100 100 100 87 66 94 97 100 100 100 100 97 100 100 100 100 100 100 100 96 98 93 96 100 100 100 100 100
26 20 18 17 16 16 16 17 21 44 100 100 100 100 100 100 100 100 100 100 95 96 100 100 100 100 100 100 100 100 100 100 100 100 95 99 92 82 86 100 100 100 100

GFSSE_250_rhum_300.txt.gz
RH
97 100 100 100 89 100 95 73 86 75 45 33 26 22 23 24 21 19 20 29 41 62 61 60 56 56 69 72 70 69 67 57 46 34 32 32 32 31 29 30 30 36 40
98 75 80 100 93 100 99 74 82 79 56 36 28 26 23 27 25 21 20 23 33 50 53 53 54 46 47 55 61 53 46 37 31 26 32 36 32 32 32 33 32 57 51
98 68 100 89 100 97 100 100 97 82 62 41 30 33 24 27 27 23 19 19 31 44 49 51 48 30 36 39 41 39 28 28 30 31 36 31 37 40 35 35 47 66 54
97 96 74 100 100 100 100 100 100 92 71 40 44 41 28 32 32 26 21 19 22 35 48 45 41 26 25 26 26 25 27 29 34 34 34 38 44 44 39 42 63 64 76
100 78 66 100 92 100 100 100 100 97 73 44 50 48 36 32 39 28 22 23 20 23 29 33 30 24 22 22 25 28 32 34 34 34 39 52 54 46 48 48 77 74 62
96 98 100 100 97 100 100 100 100 100 78 49 47 53 40 42 43 38 26 28 25 21 21 22 23 22 21 25 27 33 34 36 34 38 50 56 56 51 43 52 90 72 48
88 93 100 100 92 100 100 100 100 100 96 60 65 59 61 66 65 46 32 29 30 23 23 22 22 21 23 26 28 30 35 38 38 46 51 59 55 53 49 56 95 81 58
100 100 100 100 90 80 100 100 100 100 100 76 70 65 60 61 58 62 42 31 30 31 31 27 24 22 24 27 29 31 33 36 40 45 50 62 60 60 56 63 98 94 72
80 100 98 100 99 67 98 100 100 100 100 99 80 73 62 56 55 44 39 33 30 31 34 34 31 28 24 27 30 31 33 37 50 56 59 58 54 60 64 77 97 99 80
60 100 84 92 83 96 81 100 100 100 100 100 100 91 76 58 59 49 37 32 32 30 32 34 36 35 33 27 27 30 34 39 50 55 54 53 53 57 60 81 99 100 95
79 84 65 94 100 98 83 76 87 82 92 99 100 100 89 73 69 59 46 36 33 33 32 33 36 38 39 39 35 36 42 44 48 50 54 55 58 59 61 76 100 100 100
96 97 87 74 84 100 93 79 89 98 88 86 89 100 100 90 83 70 62 55 40 36 35 33 33 35 38 40 42 45 47 48 49 50 52 54 55 59 69 75 100 100 100
64 69 76 99 98 96 80 94 90 87 76 81 79 89 100 100 89 81 75 81 65 46 42 35 35 34 35 36 40 43 45 47 49 50 52 53 56 58 68 92 100 100 100
100 82 62 68 100 100 90 100 100 100 100 86 75 80 89 100 100 98 90 91 90 66 66 58 48 45 39 37 38 40 42 44 46 48 51 56 62 66 79 100 100 100 100
100 100 100 78 68 88 100 98 100 100 100 100 92 65 70 88 100 100 100 100 100 100 94 89 84 68 52 44 43 48 50 48 48 52 60 64 66 78 93 100 100 100 100
100 100 97 72 91 55 60 96 100 100 100 100 100 99 70 62 84 100 100 100 100 100 100 100 100 99 96 93 89 84 78 74 67 66 66 70 75 77 97 100 94 91 100
95 100 100 100 96 93 63 76 100 100 99 95 100 100 100 98 76 80 100 100 100 100 100 100 100 98 95 93 68 95 100 100 92 86 90 86 88 90 92 94 80 75 81
35 92 97 99 100 100 92 78 100 100 100 100 100 100 100 100 100 100 100 100 100 100 100 100 100 100 89 96 59 68 93 100 100 100 100 100 100 93 92 86 86 89 79
36 30 68 89 94 96 100 100 96 100 100 100 100 100 100 100 100 100 100 100 100 100 100 100 100 100 98 84 82 79 46 56 100 100 100 100 100 100 91 94 98 100 89
33 35 31 38 76 91 93 100 100 100 100 100 100 100 100 100 100 100 100 100 100 100 100 100 100 100 100 98 85 82 65 62 82 100 100 100 100 100 100 100 96 100 94
48 36 35 30 27 54 87 92 100 100 100 100 100 100 100 100 100 100 100 100 100 100 100 100 100 100 100 100 90 88 92 68 70 83 99 100 100 100 100 100 100 100 88
50 61 48 36 34 26 42 82 87 100 100 100 100 100 100 100 92 100 100 100 100 100 98 100 100 100 100 100 100 99 96 96 80 82 93 100 100 100 100 97 91 92 95
49 63 77 64 42 41 28 32 71 99 100 100 100 100 100 100 98 82 93 100 100 100 100 99 94 99 100 100 100 100 100 100 74 74 83 96 96 100 97 100 94 87 88
58 49 54 78 90 73 50 37 29 55 97 100 100 100 100 100 100 90 78 83 100 100 96 100 100 89 92 83 100 100 100 100 85 86 86 96 81 87 100 100 97 94 89
54 61 56 64 83 98 85 53 50 25 45 73 100 100 100 100 100 100 100 80 82 100 86 84 96 100 100 100 98 93 99 100 97 86 86 85 96 100 100 100 95 96 99
55 59 61 62 82 66 85 84 54 45 26 34 59 100 100 100 100 100 100 100 84 87 100 99 99 91 82 78 95 92 90 100 100 94 86 76 86 100 100 92 100 100 100

GFSSE_250_rhum_303.txt.gz
RH
95 100 100 100 94 80 94 85 99 96 92 78 42 26 22 23 22 19 18 24 47 70 68 65 61 62 70 69 69 76 78 73 62 53 40 39 39 33 31 27 27 28 37
100 100 95 100 100 96 92 100 100 87 88 87 55 33 23 23 25 22 18 20 28 54 66 64 58 49 53 60 63 66 61 55 46 32 30 35 34 34 33 29 31 38 45
74 98 76 77 95 93 100 88 100 90 88 89 76 37 27 24 27 24 20 18 26 37 55 55 56 51 37 45 50 51 45 39 30 29 38 35 35 39 37 34 35 50 50
100 92 89 81 90 80 88 100 100 100 96 95 82 42 32 26 27 29 22 18 19 30 41 46 51 43 31 35 38 40 29 28 29 33 35 38 44 46 46 40 39 53 57
89 95 81 89 79 100 74 99 100 100 100 100 92 50 38 34 28 32 29 20 19 23 32 40 40 36 28 26 29 27 28 28 30 32 34 45 56 56 52 41 46 75 62
85 86 100 98 100 87 79 97 100 100 100 100 99 59 44 53 29 38 33 22 24 21 22 27 29 28 25 22 23 25 30 32 34 33 36 47 53 56 53 49 49 68 71
96 88 90 99 99 72 81 90 99 100 100 100 100 64 46 68 45 37 39 29 27 26 21 22 21 21 22 22 24 25 29 31 32 35 43 50 52 59 55 54 57 78 80
70 79 76 80 98 81 92 100 83 100 100 100 100 85 51 81 84 54 45 38 32 29 24 23 22 21 22 22 26 27 29 30 33 38 43 48 55 58 53 58 59 79 83
54 67 77 81 100 91 97 89 92 92 98 100 100 94 76 82 84 85 74 48 39 30 30 29 27 24 22 23 26 27 29 32 34 44 49 55 57 52 53 58 58 69 94
64 59 64 70 81 100 100 85 98 83 86 82 100 100 88 77 77 75 79 69 45 34 30 31 34 31 28 24 25 28 30 32 34 39 52 55 54 54 58 59 61 68 98
57 70 91 77 83 97 94 96 100 84 78 83 86 97 100 92 76 74 62 59 52 36 33 30 32 35 35 33 29 26 28 31 37 40 44 49 53 54 55 57 62 69 100
70 92 96 96 100 99 83 80 76 96 74 80 100 96 82 100 100 79 70 58 49 35 32 32 31 33 36 37 38 36 34 35 40 44 47 49 51 52 53 56 59 78 100
70 86 100 100 100 100 100 100 100 97 86 77 74 79 76 70 99 100 90 73 66 49 39 32 32 32 34 35 38 39 41 44 45 47 48 48 50 51 52 59 68 90 100
99 71 91 97 100 100 100 100 100 100 100 100 94 60 64 74 72 80 100 90 76 65 50 48 35 34 34 34 35 36 38 40 43 45 46 47 48 50 54 63 74 95 98
100 94 77 67 85 100 100 100 100 100 100 100 100 100 77 67 72 74 77 100 96 84 65 79 63 41 37 35 35 35 36 37 38 40 42 44 46 56 63 68 73 93 90
74 95 100 73 72 85 100 100 82 100 100 100 100 100 97 87 86 87 82 83 100 100 83 77 92 67 53 49 50 48 39 39 51 56 60 64 62 65 75 78 88 77 80
51 66 88 100 87 91 92 97 92 84 100 100 100 100 100 100 98 93 98 92 88 98 100 96 92 99 83 82 79 70 72 78 85 89 91 90 96 90 89 92 99 82 83
19 37 46 83 100 100 94 97 94 93 87 84 100 100 100 99 100 100 100 100 94 83 99 100 100 100 100 100 100 100 95 79 65 56 78 93 100 100 100 100 100 100 90
28 19 31 46 82 100 100 100 100 100 100 100 97 97 100 100 100 100 100 100 100 92 84 96 100 100 100 100 100 100 100 99 92 68 52 42 60 99 100 100 86 100 100
46 34 21 24 40 60 94 100 100 100 100 100 100 100 98 95 100 100 100 100 100 100 100 92 100 100 99 100 100 100 100 100 92 86 72 72 55 78 97 99 100 100 100
50 48 36 24 20 31 44 86 100 100 100 100 100 100 100 97 59 97 100 100 100 100 100 100 100 100 100 100 100 100 100 100 98 91 89 80 68 67 75 72 85 100 100
52 56 48 43 28 25 29 39 79 100 100 100 100 100 100 100 100 64 78 96 100 100 100 100 100 100 100 100 100 100 100 100 100 100 100 88 80 88 80 88 90 83 99
30 45 57 55 47 34 28 30 39 66 98 100 100 100 100 100 100 100 74 65 74 91 100 100 100 100 100 100 100 100 100 100 100 100 99 100 100 100 80 67 73 77 80
30 39 46 58 58 47 39 30 31 42 60 93 100 100 100 100 100 100 90 72 88 64 73 86 98 100 100 100 100 99 100 100 100 94 97 100 100 100 97 84 85 83 96
32 30 51 52 56 57 50 41 31 30 42 51 78 100 100 100 100 100 100 99 83 76 68 58 57 69 99 100 100 93 88 91 84 78 90 79 98 100 100 100 96 85 75
24 34 30 41 51 51 51 47 41 33 30 40 47 58 89 100 100 100 100 100 100 98 81 67 58 46 51 62 80 94 87 95 97 94 94 79 75 95 100 100 100 95 84

GFSSE_250_rhum_306.txt.gz
RH
68 74 72 96 100 100 100 100 84 84 83 81 83 68 31 23 23 20 17 19 35 52 63 62 65 68 68 67 63 66 63 62 59 61 56 45 51 51 39 32 28 29 30
88 99 100 100 100 100 100 100 94 92 100 91 72 86 48 25 23 24 19 17 22 42 58 62 62 59 66 71 73 71 70 72 66 54 43 33 35 35 36 33 32 30 32
84 100 87 100 100 100 100 100 100 100 100 99 76 86 72 34 24 25 22 18 20 26 40 59 60 52 50 54 58 61 61 56 48 37 29 34 36 40 40 37 34 32 33
100 100 100 100 100 95 100 100 100 99 95 96 79 79 82 49 28 25 26 20 18 25 31 43 55 56 40 39 46 52 48 41 34 30 31 35 42 47 45 36 35 38 48
100 100 100 92 88 80 80 97 100 100 100 100 99 82 83 57 35 27 28 24 18 19 25 32 40 54 41 30 36 40 40 29 29 31 34 36 46 49 44 37 38 39 53
100 100 100 87 73 70 69 86 100 100 98 100 100 100 100 75 40 33 28 31 22 18 20 26 32 42 39 28 27 34 31 26 26 31 34 37 46 50 52 46 43 45 66
97 83 71 78 74 69 63 63 100 100 100 100 100 100 100 95 47 41 32 36 28 22 20 20 24 30 31 25 24 24 25 24 25 30 33 42 47 51 55 50 50 50 65
84 68 66 74 96 86 86 77 89 94 100 100 100 100 100 100 63 56 47 37 37 26 26 21 20 22 23 22 22 22 22 23 25 29 34 42 47 51 56 50 50 53 60
100 91 86 66 72 70 95 93 74 88 100 100 100 100 100 100 85 83 77 44 43 35 32 25 23 21 20 21 20 23 24 26 27 30 34 45 50 54 55 54 56 56 59
100 94 96 90 100 98 74 79 84 75 100 100 100 100 100 100 98 100 98 88 53 47 36 32 29 26 24 21 21 22 25 26 27 32 35 45 52 54 55 56 55 55 55
98 99 92 87 93 100 100 99 97 94 86 100 100 100 100 100 100 95 66 90 87 75 48 37 32 31 30 28 24 22 24 27 29 32 35 38 46 48 52 54 53 56 57
98 91 98 96 85 99 90 100 100 95 94 94 100 100 100 96 90 100 93 73 90 83 84 48 35 32 32 33 32 30 26 26 27 29 34 42 46 48 51 52 53 54 67
100 83 100 90 77 75 88 96 100 100 99 100 100 100 100 100 89 73 98 100 98 81 68 72 47 34 32 32 34 35 35 34 32 32 38 42 46 49 49 50 50 55 66
86 99 77 98 100 80 66 97 91 100 100 100 100 100 100 100 100 100 96 72 99 100 82 62 48 36 32 32 32 34 36 38 39 42 43 44 46 48 48 47 50 58 64
64 84 100 87 73 100 75 84 100 100 100 100 100 100 100 100 100 100 100 90 74 87 100 100 80 42 38 37 34 34 34 36 37 37 39 42 44 45 44 43 49 61 72
24 40 83 100 96 67 100 79 92 100 95 98 100 100 100 100 100 100 100 100 85 66 69 97 100 86 53 41 43 44 35 35 35 36 36 38 42 53 60 67 78 84 92
22 23 29 67 100 99 76 93 100 100 100 95 70 100 100 100 100 100 100 100 88 76 70 80 99 100 96 70 65 63 43 36 41 44 37 40 53 69 85 89 100 100 100
22 24 26 23 60 99 100 70 90 100 100 100 100 71 85 95 100 100 100 100 100 81 76 83 100 100 100 98 82 92 68 51 53 51 48 64 77 62 66 71 85 100 100
24 26 24 28 24 52 94 100 80 94 100 100 100 100 94 90 82 93 100 100 100 100 96 82 88 100 100 100 100 99 98 88 90 89 89 96 82 63 52 45 42 64 93
18 21 28 25 29 26 40 84 100 91 91 100 100 100 100 100 95 92 100 95 84 98 100 100 90 94 88 100 100 100 100 100 100 100 100 100 100 98 79 69 66 58 70
19 18 19 26 26 28 28 32 59 100 100 100 100 100 100 100 100 100 100 100 87 97 100 100 100 100 100 84 100 100 100 100 100 100 100 100 100 100 87 74 68 72 78
18 18 17 18 25 28 30 29 29 47 97 100 100 100 100 100 100 100 100 100 79 50 63 98 99 100 100 100 97 100 100 100 100 100 100 100 100 100 100 90 80 81 91
18 19 18 16 17 24 29 30 33 29 43 88 100 100 100 100 100 100 100 92 87 100 97 73 72 85 86 99 100 97 97 100 100 100 100 100 100 100 100 100 100 81 87
15 17 19 16 16 17 24 29 30 37 30 37 80 100 100 100 100 100 100 100 100 100 90 90 76 66 62 75 89 96 98 100 100 100 100 100 100 100 100 100 90 78 76
14 14 16 18 16 16 15 24 28 37 41 32 33 77 100 100 100 100 100 100 100 100 100 76 83 75 87 77 64 85 89 86 90 95 99 100 100 100 100 92 77 88 77
12 12 14 16 18 15 15 16 24 29 36 42 31 30 61 100 100 100 100 100 100 100 100 100 82 55 59 75 90 71 62 83 85 90 94 83 82 83 93 85 73 73 84